Hourly Weather Kitaevka

Today, 25 July, Sunday

Time Temperature Precipitation Wind Pressure Humidity
00:00 +29°C° 0 mm 2 mps 692 mmHg 19%
01:00 +29°C° 0 mm 3 mps 692 mmHg 21%
02:00 +28°C° 0 mm 3 mps 692 mmHg 23%
03:00 +27°C° 0 mm 3 mps 692 mmHg 24%
04:00 +27°C° 0 mm 3 mps 692 mmHg 25%
05:00 +27°C° 0 mm 2 mps 692 mmHg 26%
06:00 +29°C° 0 mm 3 mps 693 mmHg 22%
07:00 +33°C° 0 mm 3 mps 693 mmHg 18%
08:00 +36°C° 0 mm 3 mps 694 mmHg 15%
09:00 +38°C° 0 mm 4 mps 694 mmHg 13%
10:00 +40°C° 0 mm 4 mps 694 mmHg 12%
11:00 +42°C° 0 mm 5 mps 694 mmHg 10%
12:00 +43°C° 0 mm 5 mps 694 mmHg 9%
13:00 +43°C° 0 mm 5 mps 694 mmHg 9%
14:00 +45°C° 0 mm 6 mps 694 mmHg 8%
15:00 +45°C° 0 mm 6 mps 694 mmHg 9%
16:00 +45°C° 0 mm 6 mps 694 mmHg 9%
17:00 +45°C° 0 mm 6 mps 694 mmHg 9%
18:00 +41°C° 0 mm 6 mps 693 mmHg 10%
19:00 +39°C° 0 mm 6 mps 693 mmHg 12%
20:00 +36°C° 0 mm 5 mps 693 mmHg 13%
21:00 +35°C° 0 mm 5 mps 693 mmHg 14%
22:00 +34°C° 0 mm 5 mps 693 mmHg 15%
23:00 +33°C° 0 mm 4 mps 693 mmHg 16%

Tomorrow, 26 July, Monday

Time Temperature Precipitation Wind Pressure Humidity
00:00 +32°C° 0 mm 4 mps 693 mmHg 17%
01:00 +30°C° 0 mm 4 mps 692 mmHg 17%
02:00 +30°C° 0 mm 3 mps 692 mmHg 18%
03:00 +29°C° 0 mm 3 mps 692 mmHg 19%
04:00 +29°C° 0 mm 3 mps 692 mmHg 19%
05:00 +29°C° 0 mm 3 mps 692 mmHg 20%
06:00 +32°C° 0 mm 4 mps 692 mmHg 19%
07:00 +34°C° 0 mm 4 mps 693 mmHg 18%
08:00 +36°C° 0 mm 4 mps 693 mmHg 16%
09:00 +37°C° 0 mm 5 mps 693 mmHg 16%
10:00 +40°C° 0 mm 6 mps 693 mmHg 15%
11:00 +41°C° 0 mm 7 mps 693 mmHg 14%
12:00 +42°C° 0 mm 6 mps 693 mmHg 14%
13:00 +42°C° 0 mm 6 mps 693 mmHg 13%
14:00 +44°C° 0 mm 6 mps 693 mmHg 13%
15:00 +42°C° 0 mm 6 mps 693 mmHg 14%
16:00 +43°C° 0 mm 7 mps 692 mmHg 15%
17:00 +41°C° 0 mm 7 mps 692 mmHg 16%
18:00 +39°C° 0 mm 7 mps 692 mmHg 19%
19:00 +36°C° 0 mm 7 mps 692 mmHg 22%
20:00 +34°C° 0 mm 7 mps 692 mmHg 25%
21:00 +33°C° 0 mm 7 mps 692 mmHg 25%
22:00 +32°C° 0 mm 8 mps 692 mmHg 25%
23:00 +29°C° 0 mm 8 mps 692 mmHg 25%

Day after tomorrow, 27 July, Tuesday

Time Temperature Precipitation Wind Pressure Humidity
00:00 +28°C° 0 mm 8 mps 692 mmHg 24%
01:00 +28°C° 0 mm 7 mps 692 mmHg 23%
02:00 +27°C° 0 mm 7 mps 692 mmHg 22%
03:00 +26°C° 0 mm 7 mps 692 mmHg 24%
04:00 +24°C° 0 mm 7 mps 692 mmHg 27%
05:00 +23°C° 0 mm 6 mps 692 mmHg 29%
06:00 +24°C° 0 mm 7 mps 692 mmHg 29%
07:00 +26°C° 0 mm 8 mps 692 mmHg 29%
08:00 +27°C° 0 mm 9 mps 693 mmHg 29%
09:00 +29°C° 0 mm 9 mps 693 mmHg 29%
10:00 +31°C° 0 mm 9 mps 693 mmHg 29%
11:00 +33°C° 0 mm 9 mps 693 mmHg 30%
12:00 +34°C° 0 mm 9 mps 692 mmHg 28%
13:00 +35°C° 0 mm 9 mps 692 mmHg 26%
14:00 +37°C° 0 mm 9 mps 692 mmHg 24%
15:00 +35°C° 0 mm 9 mps 692 mmHg 24%
16:00 +35°C° 0 mm 9 mps 692 mmHg 23%
17:00 +35°C° 0 mm 9 mps 691 mmHg 22%
18:00 +33°C° 0 mm 9 mps 691 mmHg 23%
19:00 +32°C° 0 mm 9 mps 691 mmHg 23%
20:00 +31°C° 0 mm 8 mps 691 mmHg 24%
21:00 +28°C° 0 mm 8 mps 691 mmHg 25%
22:00 +27°C° 0 mm 8 mps 690 mmHg 26%
23:00 +26°C° 0 mm 8 mps 690 mmHg 27%

28 July, Wednesday

Time Temperature Precipitation Wind Pressure Humidity
00:00 +24°C° 0 mm 7 mps 690 mmHg 28%
01:00 +24°C° 0 mm 7 mps 690 mmHg 28%
02:00 +23°C° 0 mm 7 mps 689 mmHg 29%
03:00 +22°C° 0 mm 6 mps 689 mmHg 30%
04:00 +22°C° 0 mm 6 mps 689 mmHg 31%
05:00 +21°C° 0 mm 6 mps 689 mmHg 32%
06:00 +23°C° 0 mm 6 mps 689 mmHg 29%
07:00 +26°C° 0 mm 7 mps 690 mmHg 26%
08:00 +27°C° 0 mm 7 mps 690 mmHg 23%
09:00 +29°C° 0 mm 7 mps 690 mmHg 22%
10:00 +32°C° 0 mm 8 mps 690 mmHg 21%
11:00 +33°C° 0 mm 8 mps 690 mmHg 20%
12:00 +35°C° 0 mm 7 mps 690 mmHg 19%
13:00 +36°C° 0 mm 7 mps 690 mmHg 18%
14:00 +38°C° 0 mm 6 mps 690 mmHg 17%
15:00 +38°C° 0 mm 6 mps 690 mmHg 17%
16:00 +38°C° 0 mm 6 mps 690 mmHg 17%
17:00 +38°C° 0 mm 7 mps 690 mmHg 16%
18:00 +35°C° 0 mm 6 mps 689 mmHg 18%
19:00 +33°C° 0 mm 6 mps 689 mmHg 19%
20:00 +30°C° 0 mm 6 mps 689 mmHg 21%
21:00 +29°C° 0 mm 7 mps 689 mmHg 21%
22:00 +29°C° 0 mm 7 mps 689 mmHg 22%
23:00 +28°C° 0 mm 7 mps 689 mmHg 22%

29 July, Thursday

Time Temperature Precipitation Wind Pressure Humidity
00:00 +26°C° 0 mm 7 mps 689 mmHg 23%
01:00 +24°C° 0 mm 6 mps 689 mmHg 24%
02:00 +23°C° 0 mm 5 mps 689 mmHg 25%
03:00 +23°C° 0 mm 4 mps 689 mmHg 26%
04:00 +22°C° 0 mm 4 mps 689 mmHg 26%
05:00 +21°C° 0 mm 3 mps 689 mmHg 26%
06:00 +25°C° 0 mm 3 mps 690 mmHg 23%
07:00 +27°C° 0 mm 3 mps 690 mmHg 20%
08:00 +29°C° 0 mm 3 mps 691 mmHg 17%
09:00 +31°C° 0 mm 3 mps 691 mmHg 16%
10:00 +33°C° 0 mm 3 mps 691 mmHg 15%
11:00 +34°C° 0 mm 3 mps 691 mmHg 14%
12:00 +35°C° 0 mm 3 mps 691 mmHg 13%
13:00 +36°C° 0 mm 3 mps 691 mmHg 13%
14:00 +37°C° 0 mm 3 mps 690 mmHg 12%
15:00 +37°C° 0 mm 3 mps 690 mmHg 12%
16:00 +37°C° 0 mm 4 mps 690 mmHg 12%
17:00 +37°C° 0 mm 4 mps 690 mmHg 12%
18:00 +35°C° 0 mm 4 mps 690 mmHg 13%
19:00 +31°C° 0 mm 3 mps 690 mmHg 15%
20:00 +29°C° 0 mm 3 mps 690 mmHg 17%
21:00 +28°C° 0 mm 3 mps 690 mmHg 18%
22:00 +27°C° 0 mm 3 mps 690 mmHg 20%
23:00 +26°C° 0 mm 4 mps 690 mmHg 21%

30 July, Friday

Time Temperature Precipitation Wind Pressure Humidity
00:00 +25°C° 0 mm 3 mps 690 mmHg 22%
01:00 +25°C° 0 mm 3 mps 691 mmHg 22%
02:00 +25°C° 0 mm 2 mps 691 mmHg 23%
03:00 +22°C° 0.2 mm 4 mps 691 mmHg 28%
04:00 +21°C° 0.2 mm 5 mps 692 mmHg 34%
05:00 +20°C° 0.2 mm 7 mps 693 mmHg 40%
06:00 +20°C° 0.3 mm 6 mps 693 mmHg 43%
07:00 +21°C° 0.3 mm 5 mps 694 mmHg 47%
08:00 +21°C° 0.3 mm 5 mps 694 mmHg 50%
09:00 +23°C° 0 mm 5 mps 694 mmHg 42%
10:00 +26°C° 0 mm 5 mps 695 mmHg 35%
11:00 +28°C° 0 mm 5 mps 695 mmHg 27%
12:00 +29°C° 0 mm 5 mps 695 mmHg 26%
13:00 +29°C° 0 mm 6 mps 695 mmHg 25%
14:00 +30°C° 0 mm 6 mps 695 mmHg 24%
15:00 +30°C° 0 mm 7 mps 695 mmHg 25%
16:00 +29°C° 0 mm 8 mps 695 mmHg 25%
17:00 +29°C° 0 mm 9 mps 695 mmHg 26%
18:00 +27°C° 0 mm 8 mps 695 mmHg 29%
19:00 +26°C° 0 mm 8 mps 695 mmHg 32%
20:00 +23°C° 0 mm 8 mps 695 mmHg 35%
21:00 +22°C° 0 mm 7 mps 695 mmHg 39%
22:00 +21°C° 0 mm 7 mps 694 mmHg 43%
23:00 +20°C° 0 mm 6 mps 694 mmHg 47%
Show more